Content
SEND FEEDBACK

Daily
Averages
Monthly
Summary
United States of America

HARBOR SPRINGS, MICHIGAN


Home > North America > United States > Michigan
Elevation: 720 feet     Latitude: 45 34N     Longitude: 084 48W

WEATHER
 
SELECT A DAY
Number of Records: 223,446;   Date Range: 1/1/95 - 9/20/14
 
SHARE

PRINT THIS DATA

[ ← Previous Day ]
WEATHER ALMANAC - JANUARY 31, 2013
[ Next Day → ]
[ °C ]   °F
Weather ElementAverageHighLow
Temperature14 °F16 °F (12:54 am)10.4 °F (4:09 am)
Dewpoint8 °F10.4 °F (3:02 pm)3.2 °F (4:09 am)
Humidity76.8 %85 % (9:25 am)68 % (1:34 pm)
Barometer29.55 in29.84 in (11:54 pm)29.22 in (1:12 am)
Wind Speed13.9 mph20.7 mph (1:54 am)
Wind Gust27.6 mph (1:54 pm)
Weather ElementAverage
Visibility2.7 mi
Wind DirectionWNW (308.3 °)

Weather ElementTotal
Precipitation---
Heating Degree Days51.8 (Base 65)
Averaged from 63 records on January 31, 2013
WEATHER CONDITIONS BREAKOUT
WIND DIRECTION BREAKOUT
WEATHER BY HOUR - JANUARY 31, 2013
[ °C ]   °F
Local TimeTemperatureDewpointHumidityBarometerVisibilityWind DirectionWind SpeedGust SpeedPrecipitationEventsConditions
12:54 AM16.0 °F10.0 °F77 %29.24 in3.0 miNW (310°)17.3 mph0.00 inSnowLight Snow
1:12 AM15.8 °F8.6 °F73 %29.22 in2.5 miNW (310°)18.4 mph0.00 inSnowLight Snow
1:24 AM14.0 °F8.6 °F79 %29.23 in3.0 miNW (320°)18.4 mph0.00 inSnowLight Snow
1:54 AM14.0 °F7.0 °F74 %29.28 in4.0 miNW (320°)20.7 mph0.00 inSnowLight Snow
2:54 AM12.9 °F7.0 °F77 %29.31 in5.0 miNW (320°)15.0 mph0.00 inSnowLight Snow
3:54 AM10.9 °F5.0 °F77 %29.34 in3.0 miNW (310°)20.7 mph25.3 mph0.00 inSnowLight Snow
4:09 AM10.4 °F3.2 °F73 %29.31 in4.0 miNW (310°)19.6 mph25.3 mph0.00 inSnowLight Snow
4:35 AM10.4 °F3.2 °F73 %29.33 in4.0 miNW (310°)15.0 mph0.00 inSnowLight Snow
4:54 AM10.9 °F5.0 °F77 %29.37 in7.0 miNW (310°)12.7 mph0.00 inSnowLight Snow
5:46 AM12.2 °F6.8 °F79 %29.37 in2.5 miNW (320°)12.7 mph0.00 inSnowLight Snow
5:54 AM12.0 °F6.1 °F77 %29.41 in3.0 miNW (320°)16.1 mph0.00 inSnowLight Snow
6:13 AM12.2 °F6.8 °F79 %29.37 in2.5 miNNW (330°)12.7 mph0.00 inSnowLight Snow
6:25 AM12.2 °F6.8 °F79 %29.38 in1.2 miNNW (330°)15.0 mph0.00 inSnowLight Snow
6:42 AM12.2 °F6.8 °F79 %29.39 in1.0 miNW (320°)10.4 mph0.00 inSnowLight Snow
6:54 AM12.0 °F7.0 °F80 %29.44 in1.5 miNW (310°)12.7 mph0.00 inSnowLight Snow
7:12 AM12.2 °F6.8 °F79 %29.41 in1.8 miNW (320°)11.5 mph0.00 inSnowLight Snow
7:54 AM12.0 °F7.0 °F80 %29.48 in2.5 miNW (320°)11.5 mph0.00 inSnowLight Snow
8:17 AM12.2 °F6.8 °F79 %29.45 in3.0 miNW (320°)15.0 mph19.6 mph0.00 inSnowLight Snow
8:26 AM12.2 °F6.8 °F79 %29.46 in3.0 miNNW (330°)15.0 mph0.00 inSnowLight Snow
8:51 AM12.2 °F5.0 °F73 %29.48 in2.5 miNW (320°)12.7 mph0.00 inSnowLight Snow
8:54 AM12.0 °F5.0 °F73 %29.52 in2.5 miNW (320°)12.7 mph0.00 inSnowLight Snow
9:08 AM12.2 °F6.8 °F79 %29.48 in1.8 miNW (320°)11.5 mph0.00 inSnowLight Snow
9:25 AM10.4 °F6.8 °F85 %29.49 in2.0 miNW (310°)11.5 mph0.00 inSnowLight Snow
9:54 AM12.0 °F6.1 °F77 %29.54 in2.0 miNW (320°)10.4 mph0.00 inSnowLight Snow
10:12 AM12.2 °F6.8 °F79 %29.51 in1.2 miNW (310°)11.5 mph0.00 inSnowLight Snow
10:51 AM12.2 °F6.8 °F79 %29.53 in2.5 miNW (310°)10.4 mph0.00 inSnowLight Snow
10:54 AM12.9 °F7.0 °F77 %29.57 in2.5 miNW (310°)11.5 mph0.00 inSnowLight Snow
11:07 AM12.2 °F6.8 °F79 %29.54 in1.2 miWNW (300°)10.4 mph0.00 inSnowLight Snow
11:18 AM12.2 °F6.8 °F79 %29.54 in3.0 miNW (310°)12.7 mph24.2 mph0.00 inSnowLight Snow
11:54 AM14.0 °F7.0 °F74 %29.60 in2.5 miWNW (300°)13.8 mph23.0 mph0.00 inSnowLight Snow
12:02 PM14.0 °F8.6 °F79 %29.55 in1.2 miWNW (300°)10.4 mph0.00 inSnowLight Snow
12:22 PM14.0 °F8.6 °F79 %29.56 in2.0 miWest (280°)12.7 mph0.00 inSnowLight Snow
12:30 PM14.0 °F8.6 °F79 %29.56 in1.5 miWNW (290°)13.8 mph0.00 inSnowLight Snow
12:54 PM15.1 °F8.1 °F74 %29.61 in2.0 miWNW (300°)13.8 mph23.0 mph0.00 inSnowLight Snow
1:02 PM15.8 °F8.6 °F73 %29.57 in1.5 miNW (310°)12.7 mph20.7 mph0.00 inSnowLight Snow
1:34 PM15.8 °F6.8 °F68 %29.58 in2.0 miWNW (300°)13.8 mph0.00 inSnowLight Snow
1:54 PM16.0 °F8.1 °F71 %29.63 in2.5 miNW (310°)19.6 mph27.6 mph0.00 inSnowLight Snow
2:05 PM15.8 °F8.6 °F73 %29.59 in4.0 miWNW (300°)17.3 mph25.3 mph0.00 inSnowLight Snow
2:54 PM16.0 °F9.0 °F74 %29.65 in2.0 miNW (310°)9.2 mph0.00 inSnowLight Snow
3:02 PM15.8 °F10.4 °F79 %29.61 in1.2 miWNW (290°)11.5 mph0.00 inSnowLight Snow
3:26 PM15.8 °F10.4 °F79 %29.62 in2.0 miNW (310°)15.0 mph21.9 mph0.00 inSnowLight Snow
3:34 PM15.8 °F10.4 °F79 %29.62 in1.5 miWNW (300°)17.3 mph21.9 mph0.00 inSnowLight Snow
3:40 PM15.8 °F8.6 °F73 %29.62 in3.0 miNW (310°)13.8 mph21.9 mph0.00 inSnowLight Snow
3:50 PM15.8 °F10.4 °F79 %29.63 in1.8 miNW (310°)10.4 mph0.00 inSnowLight Snow
3:54 PM16.0 °F10.0 °F77 %29.68 in1.5 miNW (310°)9.2 mph0.00 inSnowLight Snow
4:01 PM15.8 °F10.4 °F79 %29.63 in3.0 miNW (310°)15.0 mph19.6 mph0.00 inSnowLight Snow
4:10 PM15.8 °F8.6 °F73 %29.64 in6.0 miWNW (300°)16.1 mph21.9 mph0.00 inHaze
4:28 PM15.8 °F8.6 °F73 %29.65 in2.5 miWNW (300°)13.8 mph0.00 inSnowLight Snow
4:38 PM15.8 °F8.6 °F73 %29.65 in4.0 miWNW (300°)13.8 mph21.9 mph0.00 inSnowLight Snow
4:46 PM15.8 °F8.6 °F73 %29.66 in2.0 miWNW (300°)13.8 mph0.00 inSnowLight Snow
4:54 PM16.0 °F10.0 °F77 %29.70 in1.5 miNW (310°)13.8 mph0.00 inSnowLight Snow
4:57 PM15.8 °F10.4 °F79 %29.66 in2.0 miNW (310°)16.1 mph0.00 inSnowLight Snow
5:17 PM15.8 °F8.6 °F73 %29.67 in4.0 miWNW (300°)13.8 mph20.7 mph0.00 inSnowLight Snow
5:54 PM15.1 °F8.1 °F74 %29.73 in5.0 miNW (310°)13.8 mph0.00 inSnowLight Snow
6:54 PM15.1 °F9.0 °F77 %29.76 in6.0 miWNW (300°)15.0 mph19.6 mph0.00 inSnowLight Snow
8:24 PM15.8 °F8.6 °F73 %29.74 in4.0 miWNW (300°)13.8 mph0.00 inSnowLight Snow
9:12 PM15.8 °F10.4 °F79 %29.75 in3.0 miWNW (300°)12.7 mph0.00 inSnowLight Snow
9:36 PM15.8 °F10.4 °F79 %29.76 in2.0 miWNW (300°)15.0 mph0.00 inSnowLight Snow
10:54 PM15.1 °F10.0 °F80 %29.83 in2.5 miWNW (290°)16.1 mph19.6 mph0.00 inSnowLight Snow
11:08 PM15.8 °F10.4 °F79 %29.78 in3.0 miWNW (290°)12.7 mph0.00 inSnowLight Snow
11:28 PM15.8 °F10.4 °F79 %29.79 in4.0 miWNW (300°)10.4 mph0.00 inSnowLight Snow
11:54 PM15.1 °F10.0 °F80 %29.84 in5.0 miWNW (300°)12.7 mph0.00 inSnowLight Snow
11:58 PM15.8 °F10.4 °F79 %29.80 in2.5 miWNW (300°)15.0 mph21.9 mph0.00 inSnowLight Snow
Hourly data recorded from KPLN, located miles away from Harbor Springs, Michigan







STORIES FROM OUR PARTNERS